Regional Weather Roundup
Issued by NWS Sioux Falls, SD

Home | Current Version | Previous Version | Graphics & Text | Print | Product List | Glossary Off
Versions: 1 2 3 4 5 6 7 8 9 10 11 12 13 14 15 16 17 18 19 20 21 22 23 24 25 26 27 28 29 30 31 32 33 34 35 36 37 38 39 40 41 42 43 44 45 46 47 48 49 50

000
ASUS43 KFSD 012002
RWRFSD

WEATHER ROUNDUP FOR SE SOUTH DAKOTA/SW MINNESOTA/NW IOWA
NATIONAL WEATHER SERVICE SIOUX FALLS SD
300 PM CDT WED OCT 01 2014

NOTE: "FAIR" INDICATES FEW OR NO CLOUDS BELOW 12,000 FEET WITH NO
SIGNIFICANT WEATHER AND OR OBSTRUCTIONS TO VISIBILITY.


SDZ038>040-050-052>070-012100-
SOUTHEAST SOUTH DAKOTA

CITY           SKY/WX    TMP DP  RH WIND       PRES   REMARKS
CHAMBERLAIN    MOSUNNY   70  49  47 NW13G18   29.76F
HURON          SUNNY     74  48  39 NW12G21   29.71F
MADISON        FAIR      72  50  46 W10G17    29.73S
MITCHELL       MOSUNNY   75  50  41 NW12      29.73S
SIOUX FALLS    PTSUNNY   72  57  59 VRB5      29.72F
WINNER         FAIR      70  48  45 NW15      29.78F
YANKTON        MOSUNNY   73  57  56 N12       29.72S
$$

MNZ071-072-080-081-089-090-097-098-012100-
SOUTHWEST MINNESOTA

CITY           SKY/WX    TMP DP  RH WIND       PRES   REMARKS
FAIRMONT       CLOUDY    61  55  82 S7        29.75F
JACKSON        PTSUNNY   68  57  68 S9        29.76F
LUVERNE        MOSUNNY   73  55  53 W10       29.72S
MARSHALL       MOSUNNY   75  55  50 W9        29.68F
MONTEVIDEO     MOSUNNY   73  61  64 S10G16    29.69F
PIPESTONE      PTSUNNY   72  55  56 W5        29.72S
REDWOOD FALLS  PTSUNNY   68  56  65 SE13      29.71F
TRACY          MOSUNNY   70  60  69 S12       29.71F
WINDOM         PTSUNNY   68  57  68 S8        29.74S
WORTHINGTON    MOSUNNY   68  57  68 SE13      29.74F
$$

IAZ001>003-012>014-020>022-031-032-NEZ013-014-SDZ071-012100-
NORTHWEST IOWA

CITY           SKY/WX    TMP DP  RH WIND       PRES   REMARKS
CHEROKEE       SUNNY     73  61  66 CALM      29.73F
DENISON        MOSUNNY   73  63  68 CALM      29.71F
ESTHERVILLE    PTSUNNY   66  59  78 VRB5      29.75S
LE MARS        SUNNY     75  57  53 VRB5      29.72F
ORANGE CITY    MOSUNNY   75  55  50 S6        29.72F
SHELDON        PTSUNNY   73  59  60 S6G16     29.72F
SIOUX CITY     MOSUNNY   78  58  49 CALM      29.71F
SPENCER        CLOUDY    68  59  73 W5        29.76F
STORM LAKE     MOSUNNY   73  59  60 CALM      29.75F
$$

ABBREVIATIONS USED IN REMARKS
   TC - TEMPERATURE IN CELSIUS
  WCI - WIND CHILL INDEX
   HX - HEAT INDEX
  VSB - VISIBILITY




USA.gov is the U.S. government's official web portal to all federal, state and local government web resources and services.